Starlink 11119

operational
NORAD ID: 60121 Int'l Des: 2024-118 Owner: SPXS Country: US Constellation: starlink
LEOCIRCULAR

About Starlink 11119

Description loading...

Live Position

Loading 3D Globe...

Upcoming Passes

Altitude History

Altitude vs Time

uPlot chart will show altitude changes over time

Two-Line Element Set

1 60121U 24118J 25351.15455179 -.00000838 00000-0 -20485-5 0 9994
2 60121 53.1585 267.8771 0001715 89.9299 270.1915 15.69708914 85038
Epoch: Dec 17, 2025 • Age: 16 hours

Current Status

Altitude 379.2 km
Velocity 7.68 km/s
Sub-Earth Point -52.89°S, 155.43°E
Launch Date Jun 24, 2024
Age 1.4 years
Type internet

Technical Details

Classification Payload
Mass 960.00 kg
Dry Mass 910.00 kg
Total Mass 960.00 kg
Length 0.30 m
Diameter 4.10 m
Span 29.00 m
Shape Box + pan
Manufacturer SPXS
Bus Type Starlink V2MD
Phase Status In Orbit
Owner/State SPXS/US

Large Constellations

Loading constellations...